User: anonymous   Login
Location: Eimen
(51.8766°N, 9.7806°E)
Time: 22:52:12
(UTC+00:00)
Language:

CZ-6A DEB - Orbit

View from above orbital plane
View from above orbital plane
View from above satellite
View from above satellite

Ground track
Ground track

The orbit data is extracted from the following two-line orbital elements,

1 54529U 22151KH  25321.96193027  .00000086  00000-0  73682-4 0  9990
2 54529  98.8304 318.7682 0044977 204.8520 155.0484 14.09321766154923
Epoch (UTC): 17 November 2025 23:05:10
Eccentricity: 0.0044977
inclination: 98.8304°
perigee height: 829 km
apogee height: 894 km
right ascension of ascending node: 318.7682°
argument of perigee: 204.8520°
revolutions per day: 14.09321766
mean anomaly at epoch: 155.0484°
orbit number at epoch: 15492

The dashed part of the orbit path shows where the satellite is in the earth's shadow,  

DLR